Tracking 18850 objects as of 22-Nov-2017
HD Live streaming from Space Station
objects crossing your sky now

FENGYUN 1C DEB

Track FENGYUN 1C DEB now!
10-day predictions


NORAD ID: 29819
Int'l Code: 1999-025DM
Perigee: 754.4 km
Apogee: 1,048.7 km
Inclination: 98.9 °
Period: 102.9 minutes
Semi major axis: 7272 km
RCS: 0.055 m2 (small)
Launch date: May 10, 1999
Source: People's Republic of China (PRC)
Launch site: Taiyaun Space Center, China (TSC)

Note: This is SATELLITE DEBRIS
aabbcc
Your satellite tracking list
Your tracking list is empty




NASA's NSSDC Master Catalog

Two Line Element Set (TLE):
1 29819U 99025DM  17326.10711240  .00000182  00000-0  12921-3 0  9998
2 29819  98.9423  21.4301 0202336 346.9472  68.5628 13.99827854554384
Source of the keplerian elements: AFSPC